Alexandria, MN (56308)

12:49 PM CST on February 12, 2016 (GMT -0600)
Burgen Sunrise | | Change Station
CLOSE
Current Station
Personal Weather Station
Location: Alexandria, MN
Elevation: 1398 ft
Nearby Weather Stations

Elev 1398 ft 45.86 °N, 95.35 °W | Updated 8 seconds ago

Clear
Clear
1.4 °F
Feels Like -20 °F
N
19.9
Wind Variable Wind from NNW
Gusts 27.5 mph

Today
High -- | Low -- °F
--% Chance of Precip.
Yesterday
High -- | Low -- °F
Precip. -- in
Pressure 30.61 in
Visibility 10.0 miles
Clouds Clear
Windchill -20 °F
Dew Point -17 °F
Humidity 41%
Rainfall 0.00 in
Snow Depth Not available.
7:29 AM 5:42 PM
Waxing Crescent, 22% visible
METAR KAXN 121753Z AUTO 34012KT 10SM CLR M17/M24 A3049 RMK AO2 SLP365 T11721239 11161 21178 51023
Pressure 30.61 in
Visibility 10.0 miles
Clouds Clear
Windchill -20 °F
Dew Point -17 °F
Humidity 41%
Rainfall 0.00 in
Snow Depth Not available.
7:29 AM 5:42 PM
Waxing Crescent, 22% visible
METAR KAXN 121753Z AUTO 34012KT 10SM CLR M17/M24 A3049 RMK AO2 SLP365 T11721239 11161 21178 51023

10-Day Weather Forecast

Almanac

Astronomy

Feb. 12, 2016 Rise Set
Actual Time
Civil Twilight
Nautical Twilight
Astronomical Twilight
Moon
Length of Visible Light
Length of Day
Tomorrow will be .
, % of the Moon is Illuminated

Today's Extremes

State Highs State Lows

Community

WunderPhotos

Upload Photos

1,892,369 photos uploaded!

WunderBlog® & News

Nearby

Air Quality

  Air Quality AQ Index Pollutant
Not available.

Snow Depth

Station Depth Elevation

Earthquake Activity

City Distance Mag. Time & Date
Minimum magnitude displayed is 2.5.

Coastal Water Temperatures

Place Temperature

Stations

Nearby Weather Stations

Station Location Temp. Windchill Dew Point Humidity Wind Precip. Elev Updated Type
                   

Watches & Warnings

There are currently no watches in effect.